Location: Lafig�re
(44.4503°N, 4.0357°E)
Time: 15:13:36
(UTC+00:00)

Vanguard 2 Rocket - Pass Details

Date: 23 June 2021
Orbit: 555 x 3325 km, 32.9° (Epoch: 28 July)

Event Time Altitude Azimuth Distance (km) Brightness Sun altitude
Rises 20:12:24 0° 259° (WSW) 7,288 12.1 -6.4°
Reaches altitude 10° 20:17:28 10° 255° (WSW) 6,281 11.6 -7.1°
Maximum altitude 20:36:27 55° 186° (S) 3,210 9.4 -9.5°
Drops below altitude 10° 20:49:32 10° 113° (ESE) 4,492 9.9 -11.0°
Enters shadow 20:50:23 - 112° (ESE) 4,678 10.0 -11.1°
